Weather History for KBMG - January, 2004

Change the Weather History Date:

Wednesday, January 28, 2004

  Actual Average Record
Temperature  
Mean Temperature 13 °F 30 °F  
Max Temperature 23 °F 39 °F 68 °F (2002)
Min Temperature 3 °F 21 °F -4 °F (2014)
Degree Days  
Heating Degree Days 52 35  
Month to date heating degree days 1002  
Since 1 July heating degree days 3075  
Cooling Degree Days 0 0  
Month to date cooling degree days 0  
Year to date cooling degree days 0  
Moisture  
Dew Point 7 °F    
Average Humidity 76    
Maximum Humidity 88    
Minimum Humidity 55    
Precipitation  
Precipitation 0.00 in 0.09 in 0.52 in (2009)
Month to date precipitation 3.04  
Year to date precipitation 3.04  
Sea Level Pressure  
Sea Level Pressure 30.21 in    
Wind  
Wind Speed 11 mph (WSW)    
Max Wind Speed 15 mph    
Max Gust Speed 21 mph    
Visibility 9 miles    
Events Snow    
T = Trace of Precipitation, MM = Missing Value Source: NWS Daily Summary

Daily Weather History Graph

Daily Weather History Graph

Search for Another Location

Airport or City:

Trip Planner

Search our weather history database for the weather conditions in past years. The results will help you decide how hot, cold, wet, or windy it might be!

Date:

Astronomy

Jan. 28, 2004 Rise Set
Actual Time 7:57 AM EST 6:02 PM EST
Civil Twilight 7:28 AM EST 6:30 PM EST
Nautical Twilight 6:56 AM EST 7:02 PM EST
Astronomical Twilight 6:24 AM EST 7:34 PM EST
Moon 11:42 AM EST 12:27 AM EST
Length of Visible Light 11h 02m
Length of Day
10h 05m
Waxing Crescent, 45% of the Moon is Illuminated
Jan 28
Waxing Crescent
Jan 29
First Quarter
Feb 6
Full
Feb 13
Last Quarter
Feb 20
New

Hourly Weather History & Observations

Time (EST) Temp. Windchill Dew Point Humidity Pressure Visibility Wind Dir Wind Speed Gust Speed Precip Events Conditions
12:41 AM 12.2 °F -1.8 °F 8.6 °F 85% 30.13 in 3.0 mi West 11.5 mph - 0.00 in Snow Light Snow
12:53 AM 12.9 °F -2.8 °F 8.1 °F 81% 30.17 in 3.0 mi West 15.0 mph 20.7 mph 0.00 in Snow Light Snow
1:19 AM 12.2 °F -3.1 °F 3.2 °F 67% 30.14 in 2.5 mi West 13.8 mph - 0.00 in Snow Light Snow
1:34 AM 12.2 °F -3.7 °F 6.8 °F 79% 30.14 in 2.5 mi West 15.0 mph 20.7 mph 0.00 in Snow Light Snow
1:46 AM 10.4 °F -4.8 °F 6.8 °F 85% 30.15 in 3.0 mi West 12.7 mph 20.7 mph 0.00 in Snow Light Snow
1:53 AM 10.9 °F -4.7 °F 6.1 °F 81% 30.19 in 3.0 mi West 13.8 mph - 0.00 in Snow Light Snow
2:46 AM 8.6 °F -7.0 °F 3.2 °F 79% 30.17 in 10.0 mi West 12.7 mph - 0.00 in   Scattered Clouds
2:53 AM 8.1 °F -7.0 °F 3.0 °F 80% 30.22 in 10.0 mi West 11.5 mph - 0.00 in   Partly Cloudy
3:53 AM 7.0 °F -6.6 °F 1.9 °F 80% 30.23 in 10.0 mi West 9.2 mph - N/A   Clear
4:53 AM 5.0 °F -8.1 °F 1.9 °F 87% 30.23 in 10.0 mi West 8.1 mph - N/A   Clear
5:53 AM 5.0 °F -9.1 °F 1.0 °F 84% 30.25 in 10.0 mi West 9.2 mph - N/A   Clear
6:53 AM 3.9 °F -9.4 °F 1.0 °F 88% 30.27 in 10.0 mi West 8.1 mph - N/A   Clear
7:53 AM 3.9 °F -6.9 °F 1.0 °F 88% 30.27 in 10.0 mi WSW 5.8 mph - N/A   Clear
8:53 AM 5.0 °F -9.1 °F 1.0 °F 84% 30.28 in 10.0 mi West 9.2 mph - N/A   Clear
9:53 AM 7.0 °F -6.6 °F 1.9 °F 80% 30.30 in 10.0 mi WSW 9.2 mph - N/A   Clear
10:53 AM 10.9 °F 1.4 °F 3.9 °F 73% 30.31 in 10.0 mi West 5.8 mph - N/A   Clear
11:53 AM 14.0 °F 2.9 °F 6.1 °F 71% 30.30 in 10.0 mi SW 8.1 mph - N/A   Clear
12:53 PM 18.0 °F 5.4 °F 7.0 °F 62% 30.27 in 10.0 mi SW 11.5 mph - N/A   Clear
1:53 PM 19.0 °F 6.1 °F 8.1 °F 62% 30.25 in 10.0 mi SW 12.7 mph - N/A   Clear
2:53 PM 21.0 °F 9.9 °F 7.0 °F 55% 30.22 in 10.0 mi WSW 10.4 mph - N/A   Clear
3:53 PM 21.9 °F 9.8 °F 9.0 °F 58% 30.20 in 10.0 mi SW 12.7 mph - N/A   Clear
4:53 PM 23.0 °F 10.6 °F 9.0 °F 55% 30.20 in 10.0 mi SW 13.8 mph - N/A   Clear
5:53 PM 21.0 °F 7.6 °F 8.1 °F 57% 30.21 in 10.0 mi SW 15.0 mph - N/A   Clear
6:53 PM 19.9 °F 8.6 °F 10.9 °F 68% 30.20 in 10.0 mi SW 10.4 mph - N/A   Scattered Clouds
7:53 PM 19.9 °F 8.6 °F 12.9 °F 74% 30.20 in 10.0 mi WSW 10.4 mph - N/A   Overcast
8:53 PM 19.9 °F 11.1 °F 14.0 °F 78% 30.19 in 10.0 mi West 6.9 mph - N/A   Overcast
9:53 PM 19.9 °F 12.1 °F 15.1 °F 81% 30.19 in 10.0 mi West 5.8 mph - N/A   Overcast
10:41 PM 19.4 °F 11.5 °F 15.8 °F 86% 30.14 in 10.0 mi West 5.8 mph - N/A   Overcast
10:53 PM 19.9 °F 12.1 °F 16.0 °F 85% 30.18 in 10.0 mi West 5.8 mph - N/A   Overcast
11:53 PM 21.0 °F 13.4 °F 16.0 °F 81% 30.17 in 10.0 mi West 5.8 mph - N/A   Overcast